Time,TemperatureF,DewpointF,PressureIn,WindDirection,WindDirectionDegrees,WindSpeedMPH,WindSpeedGustMPH,Humidity,HourlyPrecipIn,Conditions,Clouds,dailyrainin,SoftwareType,DateUTC
2013-10-13 00:00:00,72.8,70.3,29.98,SSE,150,2.0,3.0,92,0.00,,,0.27,Wunderground v.1.15,2013-10-13 05:00:00,
2013-10-13 00:05:00,72.8,70.3,29.98,SE,126,2.0,5.0,92,0.00,,,0.00,Wunderground v.1.15,2013-10-13 05:05:00,
2013-10-13 00:10:00,72.8,70.3,29.98,SE,130,2.0,5.0,92,0.00,,,0.00,Wunderground v.1.15,2013-10-13 05:10:00,
2013-10-13 00:16:00,73.0,70.5,29.98,SSE,155,2.0,5.0,92,0.00,,,0.00,Wunderground v.1.15,2013-10-13 05:16:00,
2013-10-13 00:21:00,73.0,70.5,29.98,SSE,157,2.0,5.0,92,0.00,,,0.00,Wunderground v.1.15,2013-10-13 05:21:00,
2013-10-13 00:26:00,73.0,70.5,29.98,South,171,2.0,2.0,92,0.00,,,0.00,Wunderground v.1.15,2013-10-13 05:26:00,
2013-10-13 00:31:00,73.0,70.5,29.99,SSE,162,2.0,2.0,92,0.00,,,0.00,Wunderground v.1.15,2013-10-13 05:31:00,
2013-10-13 00:36:00,73.0,70.5,29.99,SE,144,2.0,2.0,92,0.00,,,0.00,Wunderground v.1.15,2013-10-13 05:36:00,
2013-10-13 00:41:00,73.2,70.7,29.99,ESE,121,1.0,5.0,92,0.00,,,0.00,Wunderground v.1.15,2013-10-13 05:41:00,
2013-10-13 00:46:00,73.2,70.7,29.98,SE,144,1.0,2.0,92,0.00,,,0.00,Wunderground v.1.15,2013-10-13 05:46:00,
2013-10-13 00:51:00,73.0,70.5,29.98,SE,134,0.0,2.0,92,0.00,,,0.00,Wunderground v.1.15,2013-10-13 05:51:00,
2013-10-13 00:56:00,73.2,70.7,29.98,SSE,167,1.0,2.0,92,0.00,,,0.00,Wunderground v.1.15,2013-10-13 05:56:00,
2013-10-13 01:02:00,73.2,70.7,29.97,SSE,154,1.0,3.0,92,0.00,,,0.00,Wunderground v.1.15,2013-10-13 06:02:00,
2013-10-13 01:07:00,73.2,70.7,29.97,SSE,147,2.0,5.0,92,0.00,,,0.00,Wunderground v.1.15,2013-10-13 06:07:00,
2013-10-13 01:12:00,73.2,70.7,29.97,SE,130,2.0,2.0,92,0.00,,,0.00,Wunderground v.1.15,2013-10-13 06:12:00,
2013-10-13 01:17:00,73.2,70.7,29.97,SE,130,1.0,3.0,92,0.00,,,0.00,Wunderground v.1.15,2013-10-13 06:17:00,
2013-10-13 01:22:00,73.2,70.7,29.97,SE,140,1.0,3.0,92,0.00,,,0.00,Wunderground v.1.15,2013-10-13 06:22:00,
2013-10-13 01:27:00,73.2,70.7,29.97,SE,138,2.0,3.0,92,0.00,,,0.00,Wunderground v.1.15,2013-10-13 06:27:00,
2013-10-13 01:32:00,73.3,70.8,29.97,ESE,120,2.0,3.0,92,0.00,,,0.00,Wunderground v.1.15,2013-10-13 06:32:00,
2013-10-13 01:37:00,73.3,70.8,29.97,ESE,114,2.0,3.0,92,0.00,,,0.00,Wunderground v.1.15,2013-10-13 06:37:00,
2013-10-13 01:43:00,73.5,71.0,29.97,South,175,2.0,2.0,92,0.00,,,0.00,Wunderground v.1.15,2013-10-13 06:43:00,
2013-10-13 01:48:00,73.5,71.0,29.97,SE,138,1.0,2.0,92,0.00,,,0.00,Wunderground v.1.15,2013-10-13 06:48:00,
2013-10-13 01:53:00,73.3,70.8,29.97,SE,138,1.0,1.0,92,0.00,,,0.00,Wunderground v.1.15,2013-10-13 06:53:00,
2013-10-13 01:58:00,73.3,71.2,29.97,SE,127,1.0,2.0,93,0.00,,,0.00,Wunderground v.1.15,2013-10-13 06:58:00,
2013-10-13 02:03:00,73.3,71.2,29.97,SE,144,2.0,3.0,93,0.00,,,0.00,Wunderground v.1.15,2013-10-13 07:03:00,
2013-10-13 02:08:00,73.5,71.4,29.97,SE,138,2.0,3.0,93,0.00,,,0.00,Wunderground v.1.15,2013-10-13 07:08:00,
2013-10-13 02:13:00,73.5,71.4,29.97,SSE,167,3.0,3.0,93,0.00,,,0.00,Wunderground v.1.15,2013-10-13 07:13:00,
2013-10-13 02:18:00,73.5,71.4,29.97,SE,136,2.0,3.0,93,0.00,,,0.00,Wunderground v.1.15,2013-10-13 07:18:00,
2013-10-13 02:23:00,73.7,71.5,29.97,SSE,155,3.0,3.0,93,0.00,,,0.00,Wunderground v.1.15,2013-10-13 07:23:00,
2013-10-13 02:29:00,73.7,71.5,29.97,SSE,167,2.0,3.0,93,0.00,,,0.00,Wunderground v.1.15,2013-10-13 07:29:00,
2013-10-13 02:34:00,73.9,71.7,29.98,SSE,161,1.0,1.0,93,0.00,,,0.00,Wunderground v.1.15,2013-10-13 07:34:00,
2013-10-13 02:39:00,73.9,71.7,29.98,SE,144,0.0,1.0,93,0.00,,,0.00,Wunderground v.1.15,2013-10-13 07:39:00,
2013-10-13 02:44:00,73.9,72.1,29.98,SE,126,1.0,1.0,94,0.00,,,0.00,Wunderground v.1.15,2013-10-13 07:44:00,
2013-10-13 02:49:00,73.9,72.1,29.98,SE,127,1.0,1.0,94,0.00,,,0.00,Wunderground v.1.15,2013-10-13 07:49:00,
2013-10-13 02:54:00,73.9,72.1,29.98,SE,127,1.0,1.0,94,0.00,,,0.00,Wunderground v.1.15,2013-10-13 07:54:00,
2013-10-13 02:59:00,73.9,72.1,29.98,SE,126,1.0,1.0,94,0.00,,,0.00,Wunderground v.1.15,2013-10-13 07:59:00,
2013-10-13 03:21:00,74.2,72.4,29.99,SE,134,1.0,2.0,94,0.00,,,0.00,Wunderground v.1.15,2013-10-13 08:21:00,
2013-10-13 03:26:00,74.4,72.6,29.99,South,188,1.0,5.0,94,0.00,,,0.00,Wunderground v.1.15,2013-10-13 08:26:00,
2013-10-13 03:31:00,74.4,72.6,29.99,South,188,0.0,0.0,94,0.00,,,0.00,Wunderground v.1.15,2013-10-13 08:31:00,
2013-10-13 03:37:00,74.4,72.6,29.99,South,174,1.0,5.0,94,0.00,,,0.00,Wunderground v.1.15,2013-10-13 08:37:00,
2013-10-13 03:42:00,74.4,72.6,29.99,South,172,3.0,5.0,94,0.00,,,0.00,Wunderground v.1.15,2013-10-13 08:42:00,
2013-10-13 03:47:00,74.4,72.2,29.98,SSE,152,3.0,5.0,93,0.00,,,0.00,Wunderground v.1.15,2013-10-13 08:47:00,
2013-10-13 03:52:00,74.4,72.2,29.98,SSE,158,2.0,2.0,93,0.00,,,0.00,Wunderground v.1.15,2013-10-13 08:52:00,
2013-10-13 03:57:00,74.4,72.2,29.98,SSE,148,2.0,3.0,93,0.00,,,0.01,Wunderground v.1.15,2013-10-13 08:57:00,
2013-10-13 04:02:00,74.4,72.2,29.97,SE,124,3.0,3.0,93,0.00,,,0.01,Wunderground v.1.15,2013-10-13 09:02:00,
2013-10-13 04:07:00,74.2,72.0,29.97,South,179,3.0,3.0,93,0.06,,,0.01,Wunderground v.1.15,2013-10-13 09:07:00,
2013-10-13 04:12:00,74.2,72.4,29.97,South,169,2.0,2.0,94,0.06,,,0.02,Wunderground v.1.15,2013-10-13 09:12:00,
2013-10-13 04:17:00,74.2,72.4,29.97,SW,215,2.0,2.0,94,0.06,,,0.02,Wunderground v.1.15,2013-10-13 09:17:00,
2013-10-13 04:22:00,74.2,72.4,29.97,SSW,192,2.0,6.0,94,0.04,,,0.02,Wunderground v.1.15,2013-10-13 09:22:00,
2013-10-13 04:27:00,74.2,72.4,29.97,South,184,2.0,6.0,94,0.00,,,0.02,Wunderground v.1.15,2013-10-13 09:27:00,
2013-10-13 04:32:00,74.2,72.4,29.97,South,169,2.0,2.0,94,0.00,,,0.02,Wunderground v.1.15,2013-10-13 09:32:00,
2013-10-13 04:37:00,74.2,72.4,29.97,South,176,1.0,2.0,94,0.00,,,0.02,Wunderground v.1.15,2013-10-13 09:37:00,
2013-10-13 04:42:00,74.2,72.4,29.97,South,179,1.0,2.0,94,0.00,,,0.02,Wunderground v.1.15,2013-10-13 09:42:00,
2013-10-13 04:47:00,74.2,72.4,29.97,SSE,160,1.0,2.0,94,0.00,,,0.02,Wunderground v.1.15,2013-10-13 09:47:00,
2013-10-13 04:52:00,74.2,72.4,29.97,SSE,161,1.0,2.0,94,0.00,,,0.02,Wunderground v.1.15,2013-10-13 09:52:00,
2013-10-13 04:57:00,74.2,72.4,29.97,ESE,123,2.0,3.0,94,0.00,,,0.02,Wunderground v.1.15,2013-10-13 09:57:00,
2013-10-13 05:02:00,74.2,72.4,29.97,SSE,147,2.0,3.0,94,0.00,,,0.02,Wunderground v.1.15,2013-10-13 10:02:00,
2013-10-13 05:07:00,74.2,72.4,29.97,South,184,2.0,3.0,94,0.00,,,0.02,Wunderground v.1.15,2013-10-13 10:07:00,
2013-10-13 05:12:00,74.0,72.5,29.97,SE,134,2.0,2.0,95,0.00,,,0.02,Wunderground v.1.15,2013-10-13 10:12:00,
2013-10-13 05:17:00,74.0,72.5,29.98,South,174,1.0,2.0,95,0.00,,,0.02,Wunderground v.1.15,2013-10-13 10:17:00,
2013-10-13 05:23:00,74.0,72.5,29.98,SSE,164,3.0,3.0,95,0.00,,,0.02,Wunderground v.1.15,2013-10-13 10:23:00,
2013-10-13 05:28:00,74.0,72.5,29.98,South,184,3.0,3.0,95,0.00,,,0.02,Wunderground v.1.15,2013-10-13 10:28:00,
2013-10-13 05:33:00,74.0,72.5,29.98,SSE,157,3.0,5.0,95,0.00,,,0.02,Wunderground v.1.15,2013-10-13 10:33:00,
2013-10-13 05:38:00,74.0,72.5,29.98,South,181,3.0,5.0,95,0.00,,,0.02,Wunderground v.1.15,2013-10-13 10:38:00,
2013-10-13 05:43:00,74.0,72.5,29.98,SE,137,3.0,6.0,95,0.00,,,0.02,Wunderground v.1.15,2013-10-13 10:43:00,
2013-10-13 05:48:00,74.0,72.5,29.97,SSE,158,3.0,6.0,95,0.00,,,0.02,Wunderground v.1.15,2013-10-13 10:48:00,
2013-10-13 05:53:00,74.0,72.5,29.97,SSE,152,4.0,4.0,95,0.00,,,0.02,Wunderground v.1.15,2013-10-13 10:53:00,
2013-10-13 05:58:00,74.2,72.7,29.97,SE,143,2.0,4.0,95,0.00,,,0.02,Wunderground v.1.15,2013-10-13 10:58:00,
2013-10-13 06:03:00,74.2,72.7,29.99,SE,143,1.0,1.0,95,0.00,,,0.02,Wunderground v.1.15,2013-10-13 11:03:00,
2013-10-13 06:08:00,74.2,72.7,29.99,SSE,151,1.0,3.0,95,0.00,,,0.02,Wunderground v.1.15,2013-10-13 11:08:00,
2013-10-13 06:13:00,74.2,72.7,29.99,SSE,161,1.0,1.0,95,0.00,,,0.02,Wunderground v.1.15,2013-10-13 11:13:00,
2013-10-13 06:18:00,74.2,72.7,29.97,South,188,2.0,5.0,95,0.00,,,0.02,Wunderground v.1.15,2013-10-13 11:18:00,
2013-10-13 06:24:00,74.0,72.5,29.97,SSE,165,2.0,2.0,95,0.00,,,0.02,Wunderground v.1.15,2013-10-13 11:24:00,
2013-10-13 06:29:00,74.0,72.5,29.97,ESE,114,1.0,2.0,95,0.00,,,0.02,Wunderground v.1.15,2013-10-13 11:29:00,
2013-10-13 06:34:00,74.0,72.5,30.00,ESE,114,1.0,1.0,95,0.00,,,0.02,Wunderground v.1.15,2013-10-13 11:34:00,
2013-10-13 06:39:00,74.0,72.5,30.00,ESE,114,0.0,1.0,95,0.00,,,0.02,Wunderground v.1.15,2013-10-13 11:39:00,
2013-10-13 06:44:00,74.0,72.5,30.00,ESE,114,0.0,0.0,95,0.00,,,0.02,Wunderground v.1.15,2013-10-13 11:44:00,
2013-10-13 06:49:00,74.0,72.5,30.01,ESE,114,0.0,0.0,95,0.00,,,0.02,Wunderground v.1.15,2013-10-13 11:49:00,
2013-10-13 06:54:00,74.0,72.5,30.01,ESE,113,0.0,2.0,95,0.00,,,0.02,Wunderground v.1.15,2013-10-13 11:54:00,
2013-10-13 06:59:00,74.0,72.5,30.01,ESE,113,0.0,2.0,95,0.00,,,0.02,Wunderground v.1.15,2013-10-13 11:59:00,
2013-10-13 07:04:00,74.0,72.5,30.01,SE,141,1.0,5.0,95,0.00,,,0.02,Wunderground v.1.15,2013-10-13 12:04:00,
2013-10-13 07:09:00,73.9,72.4,30.01,SSE,147,1.0,5.0,95,0.00,,,0.02,Wunderground v.1.15,2013-10-13 12:09:00,
2013-10-13 07:14:00,73.9,72.4,30.01,SSE,148,1.0,3.0,95,0.00,,,0.02,Wunderground v.1.15,2013-10-13 12:14:00,
2013-10-13 07:19:00,73.9,72.4,30.01,SE,126,2.0,3.0,95,0.00,,,0.02,Wunderground v.1.15,2013-10-13 12:19:00,
2013-10-13 07:24:00,73.9,72.4,30.01,ESE,110,2.0,3.0,95,0.00,,,0.02,Wunderground v.1.15,2013-10-13 12:24:00,
2013-10-13 07:30:00,73.9,72.4,30.01,East,99,2.0,5.0,95,0.00,,,0.02,Wunderground v.1.15,2013-10-13 12:30:00,
2013-10-13 07:35:00,73.9,72.4,30.02,ESE,110,2.0,2.0,95,0.00,,,0.02,Wunderground v.1.15,2013-10-13 12:35:00,
2013-10-13 07:40:00,73.9,72.4,30.02,ESE,113,2.0,3.0,95,0.00,,,0.02,Wunderground v.1.15,2013-10-13 12:40:00,
2013-10-13 07:45:00,73.9,72.4,30.02,East,80,2.0,2.0,95,0.00,,,0.02,Wunderground v.1.15,2013-10-13 12:45:00,
2013-10-13 07:50:00,73.9,72.4,30.02,ESE,117,1.0,2.0,95,0.00,,,0.02,Wunderground v.1.15,2013-10-13 12:50:00,
2013-10-13 07:55:00,73.9,72.4,30.02,East,92,1.0,1.0,95,0.00,,,0.02,Wunderground v.1.15,2013-10-13 12:55:00,
2013-10-13 08:00:00,73.9,72.4,30.03,ENE,76,1.0,3.0,95,0.00,,,0.02,Wunderground v.1.15,2013-10-13 13:00:00,
2013-10-13 08:06:00,73.9,72.4,30.03,East,92,1.0,2.0,95,0.00,,,0.02,Wunderground v.1.15,2013-10-13 13:06:00,
2013-10-13 08:11:00,73.7,72.2,30.03,SE,131,2.0,5.0,95,0.00,,,0.02,Wunderground v.1.15,2013-10-13 13:11:00,
2013-10-13 08:16:00,73.3,71.8,30.03,ENE,75,3.0,3.0,95,0.00,,,0.02,Wunderground v.1.15,2013-10-13 13:16:00,
2013-10-13 08:21:00,73.2,71.7,30.03,ENE,76,2.0,6.0,95,0.00,,,0.02,Wunderground v.1.15,2013-10-13 13:21:00,
2013-10-13 08:26:00,73.2,71.7,30.03,East,92,2.0,2.0,95,0.00,,,0.02,Wunderground v.1.15,2013-10-13 13:26:00,
2013-10-13 08:31:00,73.0,71.5,30.04,ENE,65,1.0,5.0,95,0.00,,,0.02,Wunderground v.1.15,2013-10-13 13:31:00,
2013-10-13 08:37:00,73.0,71.5,30.04,ENE,65,2.0,5.0,95,0.00,,,0.02,Wunderground v.1.15,2013-10-13 13:37:00,
2013-10-13 08:42:00,72.8,71.3,30.04,East,79,2.0,6.0,95,0.00,,,0.02,Wunderground v.1.15,2013-10-13 13:42:00,
2013-10-13 08:47:00,72.8,71.3,30.04,East,86,1.0,2.0,95,0.00,,,0.02,Wunderground v.1.15,2013-10-13 13:47:00,
2013-10-13 08:52:00,72.8,71.3,30.04,ENE,62,1.0,3.0,95,0.00,,,0.02,Wunderground v.1.15,2013-10-13 13:52:00,
2013-10-13 08:58:00,72.8,71.3,30.04,ENE,65,2.0,2.0,95,0.00,,,0.02,Wunderground v.1.15,2013-10-13 13:58:00,
2013-10-13 09:03:00,72.8,71.3,30.04,East,90,2.0,2.0,95,0.00,,,0.02,Wunderground v.1.15,2013-10-13 14:03:00,
2013-10-13 09:08:00,72.8,71.3,30.04,East,93,1.0,2.0,95,0.00,,,0.02,Wunderground v.1.15,2013-10-13 14:08:00,
2013-10-13 09:13:00,72.8,71.3,30.04,NE,48,1.0,2.0,95,0.00,,,0.02,Wunderground v.1.15,2013-10-13 14:13:00,
2013-10-13 09:18:00,72.8,71.3,30.06,NNE,16,1.0,3.0,95,0.00,,,0.02,Wunderground v.1.15,2013-10-13 14:18:00,
2013-10-13 09:23:00,72.8,71.3,30.06,NE,41,1.0,2.0,95,0.00,,,0.02,Wunderground v.1.15,2013-10-13 14:23:00,
2013-10-13 09:28:00,72.8,71.3,30.06,NE,35,1.0,3.0,95,0.00,,,0.02,Wunderground v.1.15,2013-10-13 14:28:00,
2013-10-13 09:33:00,72.8,71.3,30.07,East,79,2.0,2.0,95,0.00,,,0.02,Wunderground v.1.15,2013-10-13 14:33:00,
2013-10-13 09:39:00,72.7,71.2,30.07,NE,42,2.0,3.0,95,0.00,,,0.03,Wunderground v.1.15,2013-10-13 14:39:00,
2013-10-13 09:44:00,72.7,71.2,30.07,East,83,2.0,2.0,95,0.10,,,0.04,Wunderground v.1.15,2013-10-13 14:44:00,
2013-10-13 09:49:00,72.7,71.2,30.07,ENE,72,2.0,5.0,95,0.14,,,0.05,Wunderground v.1.15,2013-10-13 14:49:00,
2013-10-13 09:54:00,72.7,71.2,30.07,NNE,25,2.0,2.0,95,0.10,,,0.05,Wunderground v.1.15,2013-10-13 14:54:00,
2013-10-13 09:59:00,72.7,71.2,30.07,NE,51,2.0,2.0,95,0.10,,,0.06,Wunderground v.1.15,2013-10-13 14:59:00,
2013-10-13 10:04:00,72.7,71.2,30.07,NNE,18,1.0,2.0,95,0.06,,,0.07,Wunderground v.1.15,2013-10-13 15:04:00,
2013-10-13 10:09:00,72.7,71.2,30.07,NE,51,1.0,2.0,95,0.06,,,0.07,Wunderground v.1.15,2013-10-13 15:09:00,
2013-10-13 10:14:00,72.7,71.2,30.07,NE,47,1.0,5.0,95,0.05,,,0.07,Wunderground v.1.15,2013-10-13 15:14:00,
2013-10-13 10:19:00,72.7,71.2,30.08,ENE,66,2.0,5.0,95,0.04,,,0.07,Wunderground v.1.15,2013-10-13 15:19:00,
2013-10-13 10:24:00,72.7,71.2,30.08,ENE,68,1.0,2.0,95,0.04,,,0.08,Wunderground v.1.15,2013-10-13 15:24:00,
2013-10-13 10:29:00,72.8,71.6,30.08,ENE,66,0.0,3.0,96,0.09,,,0.09,Wunderground v.1.15,2013-10-13 15:29:00,
2013-10-13 10:34:00,72.8,71.6,30.09,ENE,66,1.0,1.0,96,0.12,,,0.10,Wunderground v.1.15,2013-10-13 15:34:00,
2013-10-13 10:39:00,73.0,71.8,30.09,ENE,66,0.0,1.0,96,0.11,,,0.11,Wunderground v.1.15,2013-10-13 15:39:00,
2013-10-13 10:44:00,73.0,71.8,30.09,ENE,72,0.0,2.0,96,0.12,,,0.12,Wunderground v.1.15,2013-10-13 15:44:00,
2013-10-13 10:50:00,73.2,72.0,30.09,ENE,66,0.0,2.0,96,0.14,,,0.13,Wunderground v.1.15,2013-10-13 15:50:00,
2013-10-13 10:55:00,73.2,72.0,30.09,ENE,59,1.0,5.0,96,0.16,,,0.14,Wunderground v.1.15,2013-10-13 15:55:00,
2013-10-13 11:00:00,73.3,72.1,30.09,ENE,61,2.0,5.0,96,0.10,,,0.15,Wunderground v.1.15,2013-10-13 16:00:00,
2013-10-13 11:05:00,73.3,72.1,30.08,NE,54,2.0,5.0,96,0.08,,,0.16,Wunderground v.1.15,2013-10-13 16:05:00,
2013-10-13 11:10:00,73.5,72.3,30.08,ENE,58,2.0,5.0,96,0.07,,,0.16,Wunderground v.1.15,2013-10-13 16:10:00,
2013-10-13 11:15:00,73.5,72.3,30.08,ENE,65,2.0,5.0,96,0.07,,,0.17,Wunderground v.1.15,2013-10-13 16:15:00,
2013-10-13 11:20:00,73.5,72.3,30.08,East,95,3.0,8.0,96,0.11,,,0.18,Wunderground v.1.15,2013-10-13 16:20:00,
2013-10-13 11:25:00,73.5,72.3,30.08,ENE,65,2.0,3.0,96,0.08,,,0.19,Wunderground v.1.15,2013-10-13 16:25:00,
2013-10-13 11:30:00,73.5,72.3,30.08,ENE,68,2.0,5.0,96,0.10,,,0.20,Wunderground v.1.15,2013-10-13 16:30:00,
2013-10-13 11:36:00,73.5,72.3,30.08,NNE,25,2.0,2.0,96,0.09,,,0.20,Wunderground v.1.15,2013-10-13 16:36:00,
2013-10-13 11:41:00,73.7,72.5,30.08,NE,55,2.0,2.0,96,0.08,,,0.21,Wunderground v.1.15,2013-10-13 16:41:00,
2013-10-13 11:46:00,73.9,72.7,30.08,East,86,2.0,2.0,96,0.06,,,0.21,Wunderground v.1.15,2013-10-13 16:46:00,
2013-10-13 11:51:00,73.9,72.7,30.08,NE,38,1.0,2.0,96,0.04,,,0.21,Wunderground v.1.15,2013-10-13 16:51:00,
2013-10-13 11:56:00,73.9,72.7,30.08,NE,49,1.0,2.0,96,0.00,,,0.21,Wunderground v.1.15,2013-10-13 16:56:00,
2013-10-13 12:01:00,73.9,72.7,30.07,NE,55,2.0,5.0,96,0.00,,,0.22,Wunderground v.1.15,2013-10-13 17:01:00,
2013-10-13 12:06:00,73.9,72.7,30.07,ENE,59,2.0,2.0,96,0.00,,,0.22,Wunderground v.1.15,2013-10-13 17:06:00,
2013-10-13 12:11:00,74.0,72.8,30.07,NNE,16,2.0,2.0,96,0.00,,,0.22,Wunderground v.1.15,2013-10-13 17:11:00,
2013-10-13 12:16:00,73.9,72.7,30.07,NE,41,2.0,3.0,96,0.00,,,0.22,Wunderground v.1.15,2013-10-13 17:16:00,
2013-10-13 12:22:00,74.0,72.8,30.07,NE,41,2.0,3.0,96,0.00,,,0.22,Wunderground v.1.15,2013-10-13 17:22:00,
2013-10-13 12:27:00,74.0,72.8,30.07,NE,41,1.0,2.0,96,0.00,,,0.23,Wunderground v.1.15,2013-10-13 17:27:00,
2013-10-13 12:32:00,74.0,72.8,30.06,ENE,78,0.0,2.0,96,0.00,,,0.23,Wunderground v.1.15,2013-10-13 17:32:00,
2013-10-13 12:37:00,74.0,72.8,30.06,NE,42,1.0,3.0,96,0.05,,,0.23,Wunderground v.1.15,2013-10-13 17:37:00,
2013-10-13 12:42:00,73.9,72.7,30.06,East,79,1.0,3.0,96,0.05,,,0.24,Wunderground v.1.15,2013-10-13 17:42:00,
2013-10-13 12:47:00,73.9,72.7,30.04,ENE,62,2.0,6.0,96,0.05,,,0.24,Wunderground v.1.15,2013-10-13 17:47:00,
2013-10-13 12:54:00,74.0,72.8,30.04,ENE,75,1.0,1.0,96,0.05,,,0.25,Wunderground v.1.15,2013-10-13 17:54:00,
2013-10-13 12:59:00,74.0,72.8,30.04,ENE,75,1.0,1.0,96,0.05,,,0.25,Wunderground v.1.15,2013-10-13 17:59:00,
2013-10-13 13:04:00,74.2,73.0,30.04,East,82,1.0,2.0,96,0.04,,,0.25,Wunderground v.1.15,2013-10-13 18:04:00,
2013-10-13 13:09:00,74.2,73.0,30.04,East,86,1.0,2.0,96,0.04,,,0.26,Wunderground v.1.15,2013-10-13 18:09:00,
2013-10-13 13:14:00,74.2,73.0,30.04,East,88,1.0,3.0,96,0.04,,,0.26,Wunderground v.1.15,2013-10-13 18:14:00,
2013-10-13 13:19:00,74.4,73.2,30.04,East,88,0.0,3.0,96,0.04,,,0.26,Wunderground v.1.15,2013-10-13 18:19:00,
2013-10-13 13:25:00,74.4,73.2,30.04,East,88,0.0,0.0,96,0.00,,,0.26,Wunderground v.1.15,2013-10-13 18:25:00,
2013-10-13 13:30:00,74.6,73.4,30.04,East,88,0.0,0.0,96,0.00,,,0.26,Wunderground v.1.15,2013-10-13 18:30:00,
2013-10-13 13:35:00,74.6,73.4,30.04,East,88,0.0,0.0,96,0.00,,,0.27,Wunderground v.1.15,2013-10-13 18:35:00,
2013-10-13 13:40:00,74.4,73.2,30.04,East,90,0.0,1.0,96,0.00,,,0.27,Wunderground v.1.15,2013-10-13 18:40:00,
2013-10-13 13:45:00,74.4,73.2,30.04,South,171,1.0,2.0,96,0.06,,,0.28,Wunderground v.1.15,2013-10-13 18:45:00,
2013-10-13 13:50:00,74.4,73.2,30.04,SSE,161,1.0,2.0,96,0.06,,,0.28,Wunderground v.1.15,2013-10-13 18:50:00,
2013-10-13 13:55:00,74.4,73.2,30.04,SE,143,1.0,3.0,96,0.07,,,0.29,Wunderground v.1.15,2013-10-13 18:55:00,
2013-10-13 14:00:00,74.4,73.2,30.03,SE,140,2.0,3.0,96,0.11,,,0.30,Wunderground v.1.15,2013-10-13 19:00:00,
2013-10-13 14:05:00,74.6,73.4,30.03,SE,141,2.0,5.0,96,0.09,,,0.31,Wunderground v.1.15,2013-10-13 19:05:00,
2013-10-13 14:10:00,74.6,73.4,30.03,SSE,152,2.0,5.0,96,0.07,,,0.31,Wunderground v.1.15,2013-10-13 19:10:00,
2013-10-13 14:17:00,74.6,73.4,30.03,South,171,2.0,3.0,96,0.04,,,0.31,Wunderground v.1.15,2013-10-13 19:17:00,
2013-10-13 14:22:00,74.6,73.4,30.03,SE,144,2.0,2.0,96,0.04,,,0.32,Wunderground v.1.15,2013-10-13 19:22:00,
2013-10-13 14:27:00,74.6,73.4,30.03,SSE,154,1.0,3.0,96,0.17,,,0.34,Wunderground v.1.15,2013-10-13 19:27:00,
2013-10-13 14:32:00,74.6,73.4,30.03,SE,143,1.0,2.0,96,0.14,,,0.35,Wunderground v.1.15,2013-10-13 19:32:00,
2013-10-13 14:37:00,74.6,73.4,30.03,SE,131,2.0,3.0,96,0.12,,,0.36,Wunderground v.1.15,2013-10-13 19:37:00,
2013-10-13 14:42:00,74.6,73.4,30.03,SE,130,3.0,3.0,96,0.11,,,0.37,Wunderground v.1.15,2013-10-13 19:42:00,
2013-10-13 14:47:00,74.6,73.4,30.02,South,169,3.0,7.0,96,0.18,,,0.39,Wunderground v.1.15,2013-10-13 19:47:00,
2013-10-13 14:52:00,74.7,73.5,30.02,SE,140,4.0,4.0,96,0.13,,,0.40,Wunderground v.1.15,2013-10-13 19:52:00,
2013-10-13 14:59:00,74.7,73.5,30.02,SSE,162,3.0,5.0,96,0.08,,,0.40,Wunderground v.1.15,2013-10-13 19:59:00,
2013-10-13 15:04:00,74.7,73.5,30.01,SSE,157,3.0,5.0,96,0.08,,,0.41,Wunderground v.1.15,2013-10-13 20:04:00,
2013-10-13 15:09:00,74.7,73.5,30.01,SE,130,3.0,7.0,96,0.05,,,0.41,Wunderground v.1.15,2013-10-13 20:09:00,
2013-10-13 15:14:00,74.9,73.7,30.01,South,176,4.0,6.0,96,0.05,,,0.42,Wunderground v.1.15,2013-10-13 20:14:00,
2013-10-13 15:19:00,74.9,73.7,30.01,SSE,147,4.0,7.0,96,0.05,,,0.42,Wunderground v.1.15,2013-10-13 20:19:00,
2013-10-13 15:24:00,74.9,73.7,30.01,SE,141,4.0,7.0,96,0.05,,,0.42,Wunderground v.1.15,2013-10-13 20:24:00,
2013-10-13 15:29:00,74.7,73.5,30.01,SSE,158,5.0,14.0,96,0.00,,,0.42,Wunderground v.1.15,2013-10-13 20:29:00,
2013-10-13 15:34:00,74.7,73.5,30.00,SSE,152,5.0,6.0,96,0.00,,,0.42,Wunderground v.1.15,2013-10-13 20:34:00,
2013-10-13 15:58:00,74.6,73.4,30.00,SSE,168,4.0,8.0,96,0.00,,,0.42,Wunderground v.1.15,2013-10-13 20:58:00,
2013-10-13 16:04:00,74.6,73.4,30.00,SSE,158,4.0,5.0,96,0.00,,,0.42,Wunderground v.1.15,2013-10-13 21:04:00,
2013-10-13 16:09:00,74.7,73.5,30.00,South,184,3.0,5.0,96,0.00,,,0.42,Wunderground v.1.15,2013-10-13 21:09:00,
2013-10-13 16:15:00,74.6,73.4,30.00,SE,144,4.0,7.0,96,0.00,,,0.42,Wunderground v.1.15,2013-10-13 21:15:00,
2013-10-13 16:20:00,74.6,73.1,29.99,SE,127,3.0,7.0,95,0.00,,,0.42,Wunderground v.1.15,2013-10-13 21:20:00,
2013-10-13 16:25:00,74.4,72.9,29.99,SE,126,5.0,5.0,95,0.00,,,0.42,Wunderground v.1.15,2013-10-13 21:25:00,
2013-10-13 16:30:00,74.6,73.1,29.99,SE,141,5.0,7.0,95,0.00,,,0.42,Wunderground v.1.15,2013-10-13 21:30:00,
2013-10-13 16:35:00,74.6,73.1,29.99,SE,133,5.0,5.0,95,0.00,,,0.42,Wunderground v.1.15,2013-10-13 21:35:00,
2013-10-13 16:40:00,74.4,72.9,29.99,South,172,5.0,5.0,95,0.00,,,0.42,Wunderground v.1.15,2013-10-13 21:40:00,
2013-10-13 16:45:00,74.4,72.9,29.99,SE,144,4.0,4.0,95,0.00,,,0.42,Wunderground v.1.15,2013-10-13 21:45:00,
2013-10-13 16:51:00,74.4,72.6,29.99,South,172,4.0,6.0,94,0.00,,,0.42,Wunderground v.1.15,2013-10-13 21:51:00,
2013-10-13 16:56:00,74.0,72.2,29.99,South,174,5.0,8.0,94,0.00,,,0.42,Wunderground v.1.15,2013-10-13 21:56:00,
2013-10-13 17:01:00,73.9,71.7,30.00,ESE,120,5.0,8.0,93,0.00,,,0.42,Wunderground v.1.15,2013-10-13 22:01:00,
2013-10-13 17:06:00,73.9,71.4,30.00,SSE,154,6.0,7.0,92,0.00,,,0.42,Wunderground v.1.15,2013-10-13 22:06:00,
2013-10-13 17:11:00,73.9,71.4,30.00,SE,145,3.0,7.0,92,0.00,,,0.42,Wunderground v.1.15,2013-10-13 22:11:00,
2013-10-13 17:16:00,74.0,71.5,30.00,ESE,110,3.0,6.0,92,0.00,,,0.42,Wunderground v.1.15,2013-10-13 22:16:00,
2013-10-13 17:21:00,74.0,71.5,30.00,ESE,107,3.0,6.0,92,0.00,,,0.42,Wunderground v.1.15,2013-10-13 22:21:00,
2013-10-13 17:26:00,73.9,71.4,30.00,SE,144,3.0,6.0,92,0.00,,,0.42,Wunderground v.1.15,2013-10-13 22:26:00,
2013-10-13 17:31:00,73.9,71.1,30.00,SE,127,4.0,6.0,91,0.00,,,0.42,Wunderground v.1.15,2013-10-13 22:31:00,
2013-10-13 17:37:00,73.9,71.1,30.00,ENE,73,3.0,4.0,91,0.00,,,0.42,Wunderground v.1.15,2013-10-13 22:37:00,
2013-10-13 17:42:00,73.9,71.4,30.00,East,88,2.0,4.0,92,0.00,,,0.42,Wunderground v.1.15,2013-10-13 22:42:00,
2013-10-13 17:47:00,73.9,71.4,30.00,SE,137,1.0,2.0,92,0.00,,,0.42,Wunderground v.1.15,2013-10-13 22:47:00,
2013-10-13 17:52:00,73.9,71.1,30.00,SE,137,1.0,2.0,91,0.00,,,0.42,Wunderground v.1.15,2013-10-13 22:52:00,
2013-10-13 17:57:00,73.9,71.4,30.00,SE,140,1.0,2.0,92,0.00,,,0.42,Wunderground v.1.15,2013-10-13 22:57:00,
2013-10-13 18:02:00,73.9,71.1,30.00,ESE,117,1.0,5.0,91,0.00,,,0.42,Wunderground v.1.15,2013-10-13 23:02:00,
2013-10-13 18:07:00,73.7,70.9,30.00,ESE,116,1.0,5.0,91,0.00,,,0.42,Wunderground v.1.15,2013-10-13 23:07:00,
2013-10-13 18:12:00,73.7,70.9,30.00,ESE,110,1.0,2.0,91,0.00,,,0.42,Wunderground v.1.15,2013-10-13 23:12:00,
2013-10-13 18:17:00,73.7,71.2,30.00,ESE,110,1.0,2.0,92,0.00,,,0.42,Wunderground v.1.15,2013-10-13 23:17:00,
2013-10-13 18:22:00,73.7,71.2,30.00,ESE,110,1.0,1.0,92,0.00,,,0.42,Wunderground v.1.15,2013-10-13 23:22:00,
2013-10-13 18:28:00,73.7,71.2,30.00,ESE,110,0.0,2.0,92,0.00,,,0.42,Wunderground v.1.15,2013-10-13 23:28:00,
2013-10-13 18:33:00,73.7,71.2,30.01,ESE,110,1.0,1.0,92,0.00,,,0.42,Wunderground v.1.15,2013-10-13 23:33:00,
2013-10-13 18:38:00,73.5,71.0,30.01,ESE,110,1.0,1.0,92,0.00,,,0.42,Wunderground v.1.15,2013-10-13 23:38:00,
2013-10-13 18:43:00,73.5,71.0,30.01,ESE,110,0.0,0.0,92,0.00,,,0.42,Wunderground v.1.15,2013-10-13 23:43:00,
2013-10-13 18:48:00,73.5,71.0,30.02,ESE,103,0.0,0.0,92,0.00,,,0.42,Wunderground v.1.15,2013-10-13 23:48:00,
2013-10-13 18:53:00,73.5,71.0,30.02,East,85,0.0,0.0,92,0.00,,,0.42,Wunderground v.1.15,2013-10-13 23:53:00,
2013-10-13 18:58:00,73.5,71.0,30.02,East,85,0.0,0.0,92,0.00,,,0.42,Wunderground v.1.15,2013-10-13 23:58:00,
2013-10-13 19:03:00,73.3,70.8,30.02,East,92,0.0,1.0,92,0.00,,,0.42,Wunderground v.1.15,2013-10-14 00:03:00,
2013-10-13 19:09:00,73.3,70.8,30.02,ENE,76,0.0,1.0,92,0.00,,,0.42,Wunderground v.1.15,2013-10-14 00:09:00,
2013-10-13 19:14:00,73.3,70.8,30.02,East,85,0.0,0.0,92,0.00,,,0.42,Wunderground v.1.15,2013-10-14 00:14:00,
2013-10-13 19:19:00,73.3,70.8,30.02,East,85,1.0,2.0,92,0.00,,,0.42,Wunderground v.1.15,2013-10-14 00:19:00,
2013-10-13 19:24:00,73.2,70.7,30.02,East,85,0.0,0.0,92,0.00,,,0.42,Wunderground v.1.15,2013-10-14 00:24:00,
2013-10-13 19:29:00,73.2,70.7,30.02,East,85,0.0,1.0,92,0.00,,,0.42,Wunderground v.1.15,2013-10-14 00:29:00,
2013-10-13 19:34:00,73.2,70.7,30.03,East,85,0.0,0.0,92,0.00,,,0.42,Wunderground v.1.15,2013-10-14 00:34:00,
2013-10-13 19:39:00,73.2,70.7,30.03,East,85,0.0,0.0,92,0.00,,,0.42,Wunderground v.1.15,2013-10-14 00:39:00,
2013-10-13 19:44:00,73.2,70.7,30.03,East,85,0.0,0.0,92,0.00,,,0.42,Wunderground v.1.15,2013-10-14 00:44:00,
2013-10-13 19:49:00,73.2,70.7,30.04,East,85,0.0,0.0,92,0.00,,,0.42,Wunderground v.1.15,2013-10-14 00:49:00,
2013-10-13 19:54:00,73.2,70.7,30.04,East,85,0.0,0.0,92,0.00,,,0.42,Wunderground v.1.15,2013-10-14 00:54:00,
2013-10-13 19:59:00,73.2,70.7,30.04,East,85,0.0,0.0,92,0.00,,,0.42,Wunderground v.1.15,2013-10-14 00:59:00,
2013-10-13 20:05:00,73.2,70.7,30.04,East,83,0.0,2.0,92,0.00,,,0.42,Wunderground v.1.15,2013-10-14 01:05:00,
2013-10-13 20:10:00,73.2,71.1,30.04,East,83,0.0,2.0,93,0.00,,,0.42,Wunderground v.1.15,2013-10-14 01:10:00,
2013-10-13 20:15:00,73.2,71.1,30.04,East,83,0.0,0.0,93,0.00,,,0.42,Wunderground v.1.15,2013-10-14 01:15:00,
2013-10-13 20:20:00,73.0,70.9,30.05,East,83,0.0,0.0,93,0.00,,,0.42,Wunderground v.1.15,2013-10-14 01:20:00,
2013-10-13 20:25:00,73.0,70.9,30.05,East,83,0.0,0.0,93,0.00,,,0.42,Wunderground v.1.15,2013-10-14 01:25:00,
2013-10-13 20:30:00,73.0,70.9,30.05,ENE,61,0.0,1.0,93,0.00,,,0.42,Wunderground v.1.15,2013-10-14 01:30:00,
2013-10-13 20:35:00,73.0,70.9,30.05,ENE,72,0.0,0.0,93,0.00,,,0.42,Wunderground v.1.15,2013-10-14 01:35:00,
2013-10-13 20:40:00,73.0,70.9,30.05,ENE,72,0.0,1.0,93,0.00,,,0.42,Wunderground v.1.15,2013-10-14 01:40:00,
2013-10-13 20:45:00,73.0,70.9,30.05,ENE,78,0.0,0.0,93,0.00,,,0.42,Wunderground v.1.15,2013-10-14 01:45:00,
2013-10-13 20:51:00,73.0,71.2,30.05,NE,51,0.0,1.0,94,0.00,,,0.43,Wunderground v.1.15,2013-10-14 01:51:00,
2013-10-13 20:56:00,73.0,71.2,30.05,East,80,1.0,2.0,94,0.00,,,0.43,Wunderground v.1.15,2013-10-14 01:56:00,
2013-10-13 21:01:00,72.8,71.0,30.06,ENE,69,1.0,2.0,94,0.00,,,0.43,Wunderground v.1.15,2013-10-14 02:01:00,
2013-10-13 21:06:00,72.8,71.0,30.06,ENE,76,1.0,1.0,94,0.00,,,0.43,Wunderground v.1.15,2013-10-14 02:06:00,
2013-10-13 21:11:00,72.8,71.0,30.06,ENE,76,0.0,1.0,94,0.00,,,0.43,Wunderground v.1.15,2013-10-14 02:11:00,
2013-10-13 21:16:00,72.8,71.0,30.06,ENE,78,0.0,1.0,94,0.00,,,0.43,Wunderground v.1.15,2013-10-14 02:16:00,
2013-10-13 21:21:00,72.8,71.0,30.06,ENE,78,1.0,1.0,94,0.00,,,0.43,Wunderground v.1.15,2013-10-14 02:21:00,
2013-10-13 21:26:00,72.8,71.0,30.06,East,80,1.0,2.0,94,0.00,,,0.43,Wunderground v.1.15,2013-10-14 02:26:00,
2013-10-13 21:31:00,72.8,71.0,30.06,East,83,0.0,2.0,94,0.00,,,0.43,Wunderground v.1.15,2013-10-14 02:31:00,
2013-10-13 21:36:00,72.7,70.9,30.06,East,83,0.0,1.0,94,0.00,,,0.43,Wunderground v.1.15,2013-10-14 02:36:00,
2013-10-13 21:42:00,72.7,70.9,30.06,East,83,0.0,1.0,94,0.00,,,0.43,Wunderground v.1.15,2013-10-14 02:42:00,
2013-10-13 21:47:00,72.7,70.9,30.06,ENE,71,1.0,5.0,94,0.00,,,0.43,Wunderground v.1.15,2013-10-14 02:47:00,
2013-10-13 21:52:00,72.7,70.9,30.06,ENE,71,1.0,5.0,94,0.00,,,0.43,Wunderground v.1.15,2013-10-14 02:52:00,
2013-10-13 21:57:00,72.7,70.9,30.06,East,80,1.0,3.0,94,0.00,,,0.43,Wunderground v.1.15,2013-10-14 02:57:00,
2013-10-13 22:02:00,72.7,70.9,30.06,East,83,1.0,1.0,94,0.00,,,0.43,Wunderground v.1.15,2013-10-14 03:02:00,
2013-10-13 22:07:00,72.7,70.9,30.06,East,89,1.0,1.0,94,0.00,,,0.43,Wunderground v.1.15,2013-10-14 03:07:00,
2013-10-13 22:12:00,72.7,70.9,30.06,East,99,0.0,0.0,94,0.00,,,0.43,Wunderground v.1.15,2013-10-14 03:12:00,
2013-10-13 22:17:00,72.7,70.9,30.06,ESE,107,0.0,2.0,94,0.00,,,0.43,Wunderground v.1.15,2013-10-14 03:17:00,
2013-10-13 22:22:00,72.7,70.9,30.06,ESE,102,0.0,0.0,94,0.00,,,0.43,Wunderground v.1.15,2013-10-14 03:22:00,
2013-10-13 22:27:00,72.5,70.7,30.06,ESE,104,0.0,1.0,94,0.00,,,0.43,Wunderground v.1.15,2013-10-14 03:27:00,
2013-10-13 22:32:00,72.5,70.7,30.05,ESE,104,0.0,0.0,94,0.00,,,0.43,Wunderground v.1.15,2013-10-14 03:32:00,
2013-10-13 22:37:00,72.5,70.7,30.05,ESE,104,0.0,0.0,94,0.00,,,0.43,Wunderground v.1.15,2013-10-14 03:37:00,
2013-10-13 22:43:00,72.3,70.5,30.05,East,99,0.0,0.0,94,0.00,,,0.43,Wunderground v.1.15,2013-10-14 03:43:00,
2013-10-13 22:48:00,72.3,70.5,30.05,East,99,0.0,0.0,94,0.00,,,0.43,Wunderground v.1.15,2013-10-14 03:48:00,
2013-10-13 22:53:00,72.3,70.5,30.05,East,99,0.0,0.0,94,0.00,,,0.43,Wunderground v.1.15,2013-10-14 03:53:00,
2013-10-13 22:58:00,72.1,70.6,30.05,East,99,0.0,0.0,95,0.00,,,0.43,Wunderground v.1.15,2013-10-14 03:58:00,
2013-10-13 23:01:00,72.1,70.6,30.04,East,99,0.0,0.0,95,0.00,,,0.43,Wunderground v.1.15,2013-10-14 04:01:00,
2013-10-13 23:03:00,72.1,70.6,30.04,East,99,0.0,0.0,95,0.00,,,0.43,Wunderground v.1.15,2013-10-14 04:03:00,
2013-10-13 23:05:00,72.1,70.6,30.04,East,99,0.0,0.0,95,0.00,,,0.43,Wunderground v.1.15,2013-10-14 04:05:00,
2013-10-13 23:07:00,72.1,70.6,30.04,East,99,0.0,0.0,95,0.00,,,0.43,Wunderground v.1.15,2013-10-14 04:07:00,
2013-10-13 23:08:00,72.1,70.6,30.04,East,99,0.0,0.0,95,0.00,,,0.43,Wunderground v.1.15,2013-10-14 04:08:00,
2013-10-13 23:13:00,72.1,70.6,30.04,East,99,0.0,0.0,95,0.00,,,0.43,Wunderground v.1.15,2013-10-14 04:13:00,
2013-10-13 23:18:00,72.1,70.6,30.04,East,99,0.0,0.0,95,0.00,,,0.43,Wunderground v.1.15,2013-10-14 04:18:00,
2013-10-13 23:22:00,72.1,70.6,30.04,East,99,0.0,0.0,95,0.00,,,0.43,Wunderground v.1.15,2013-10-14 04:22:00,
2013-10-13 23:27:00,72.1,70.6,30.04,East,99,0.0,0.0,95,0.00,,,0.43,Wunderground v.1.15,2013-10-14 04:27:00,
2013-10-13 23:32:00,72.1,70.6,30.03,East,99,0.0,0.0,95,0.00,,,0.43,Wunderground v.1.15,2013-10-14 04:32:00,
2013-10-13 23:37:00,72.1,70.6,30.03,East,99,0.0,0.0,95,0.00,,,0.43,Wunderground v.1.15,2013-10-14 04:37:00,
2013-10-13 23:42:00,72.0,70.5,30.03,East,99,0.0,0.0,95,0.00,,,0.43,Wunderground v.1.15,2013-10-14 04:42:00,
2013-10-13 23:47:00,72.0,70.5,30.03,East,99,0.0,0.0,95,0.00,,,0.43,Wunderground v.1.15,2013-10-14 04:47:00,
2013-10-13 23:52:00,72.0,70.5,30.03,East,99,0.0,0.0,95,0.00,,,0.43,Wunderground v.1.15,2013-10-14 04:52:00,
2013-10-13 23:57:00,72.0,70.5,30.03,East,99,0.0,0.0,95,0.00,,,0.43,Wunderground v.1.15,2013-10-14 04:57:00,